Location: Janeiro
(34.9957°N, 76.7652°W)
Time: 20:30:02
(UTC+00:00)

CZ-4 R/B - Pass Details

Date: 14 December 2019
Orbit: 533 x 598 km, 97.7° (Epoch: 22 January)

Event Time Altitude Azimuth Distance (km) Brightness Sun altitude
Rises 23:27:51 0° 164° (SSE) 2,702 4.9 -18.2°
Reaches altitude 10° 23:29:58 10° 163° (SSE) 1,805 3.9 -18.6°
Maximum altitude 23:33:51 80° 77° (ENE) 552 1.1 -19.3°
Drops below altitude 10° 23:37:43 10° 351° (N) 1,795 3.9 -20.1°
Sets 23:39:50 0° 350° (N) 2,686 4.8 -20.5°
